Cloud_Cover
32 24 12 8 8 44 80 76 88 92 92 92 92 92 88 76 68 64 68 80 92 92 92 92 92 92 92 92 92 92 92 92 92 92 92 88 88 88 88 92 92 88 80 76 64 56 48 36 36 36 32 32 32 24 12 12 12 12 12 8 0 0 0 0 0 0 0 0 0
32 32 20 8 8 44 88 92 92 92 92 92 92 92 92 88 68 68 76 92 92 92 92 92 92 92 92 92 92 92 92 92 88 88 88 88 80 80 88 92 88 80 76 68 64 56 48 44 44 44 36 36 36 32 24 12 8 8 12 12 8 0 0 8 8 8 8 0 0
36 32 24 12 12 36 68 92 92 92 92 92 92 92 88 80 88 92 92 92 92 92 92 92 92 92 92 92 92 92 92 88 88 88 88 88 88 88 92 88 80 68 64 64 64 56 56 48 56 48 44 36 32 24 20 12 8 8 12 12 8 8 0 8 8 8 8 8 0
36 36 32 20 20 20 36 92 92 92 92 92 92 92 92 92 92 92 92 92 92 92 92 92 92 92 92 92 92 88 88 88 88 88 88 88 92 92 92 80 76 68 64 56 56 56 56 44 56 48 44 36 32 24 24 20 12 12 12 24 24 24 32 32 32 32 36 36 48
36 36 32 24 24 20 36 92 92 92 92 92 92 92 92 92 92 92 92 92 92 92 92 92 92 92 92 88 88 88 88 88 88 88 88 88 92 92 88 76 68 64 64 64 56 56 56 68 64 56 48 44 36 36 36 32 32 32 32 44 44 48 56 64 64 56 56 56 56
36 32 32 24 24 24 36 92 92 92 92 92 92 92 92 92 92 92 92 92 92 92 92 92 92 92 92 88 88 88 88 88 88 88 88 92 92 88 80 68 68 68 68 68 56 64 68 68 64 64 56 56 48 48 48 48 44 44 44 44 48 56 64 64 64 64 64 56 64
36 36 32 24 24 44 68 92 92 92 92 92 92 92 92 92 92 92 92 92 92 92 92 92 88 80 76 80 88 88 88 88 88 88 92 92 88 88 80 80 76 76 76 68 68 64 56 64 64 64 56 56 48 48 44 44 36 36 32 32 48 48 56 48 48 56 64 64 56
44 36 36 32 32 44 68 92 92 92 92 92 92 92 92 92 92 92 92 92 92 88 76 68 88 88 88 88 88 88 88 88 88 88 88 88 88 88 80 80 80 76 68 64 56 56 56 56 56 64 56 48 44 36 36 36 36 44 44 36 32 32 32 32 36 44 48 48 56
48 48 44 36 36 36 44 80 88 92 92 92 92 92 92 92 92 92 92 92 92 92 92 92 92 92 92 92 88 88 88 88 88 88 88 88 88 80 80 76 68 64 64 64 64 64 56 64 64 64 64 64 56 56 48 56 56 56 56 48 44 36 32 24 24 24 32 32 36
48 48 48 44 36 36 32 32 56 76 88 88 88 92 92 92 88 88 88 92 92 92 92 92 92 88 88 88 88 88 88 88 88 88 88 80 80 76 68 64 64 64 56 68 64 64 64 68 64 64 64 68 68 68 64 68 64 64 56 56 56 44 32 24 24 24 20 20 20
44 44 44 36 36 36 32 32 32 32 36 48 56 68 76 88 88 92 92 92 92 92 92 92 92 88 88 88 88 88 88 88 88 80 76 68 64 56 56 56 68 64 56 64 64 64 68 68 68 64 64 64 68 64 64 64 56 48 48 48 48 44 36 32 24 20 20 12 12
36 36 36 32 32 32 24 24 24 36 44 44 44 44 48 68 80 92 92 92 92 92 92 92 92 88 88 88 88 88 88 88 76 68 64 56 48 56 64 64 76 64 56 56 64 64 64 64 56 56 56 56 56 56 56 48 48 48 48 48 56 56 48 36 32 24 20 12 8
32 36 32 32 32 32 32 32 32 44 48 48 48 48 48 56 80 92 92 92 92 92 92 92 92 88 88 88 88 80 80 76 64 56 56 48 48 56 68 68 64 64 56 56 56 56 56 48 44 44 44 44 44 44 44 44 44 44 44 44 48 48 48 48 36 32 32 20 12
36 36 36 36 44 44 48 48 48 64 76 68 64 64 64 68 88 92 92 92 92 92 92 92 88 88 88 88 80 80 76 64 64 68 68 64 64 64 64 64 56 64 64 56 48 48 44 36 36 32 32 32 32 32 36 32 36 36 36 36 36 36 36 44 44 36 32 32 24
56 56 56 48 56 56 56 64 68 80 92 88 76 68 68 76 88 88 88 92 88 92 92 88 88 88 92 88 88 88 80 64 64 64 56 56 48 48 48 48 56 56 56 48 44 44 36 32 32 24 24 24 24 24 24 20 20 20 20 20 20 24 24 32 32 32 24 24 20
68 68 64 48 48 56 56 64 68 80 88 88 76 68 68 76 80 80 80 88 88 92 92 88 88 88 92 92 80 76 68 56 56 48 48 44 44 36 44 48 48 48 44 44 36 36 32 24 24 20 20 20 20 12 12 8 8 8 8 12 12 12 12 12 12 12 8 8 8
76 64 48 48 48 48 48 56 56 64 68 68 76 76 80 80 80 80 80 88 88 92 92 88 80 80 80 80 68 64 56 56 56 56 56 48 44 44 44 44 44 36 36 36 32 32 24 24 20 20 12 12 12 8 0 0 0 0 0 0 0 0 0 0 0 0 0 0 0
68 56 56 48 48 48 48 48 56 64 68 68 80 88 88 88 88 88 92 88 88 88 88 80 76 76 76 68 64 64 64 68 68 64 56 48 44 44 44 36 36 32 32 32 32 24 24 20 12 8 8 8 0 0 0 0 0 0 0 0 0 0 0 0 0 0 0 0 0
68 64 64 64 56 56 56 56 64 76 80 88 80 80 80 88 88 92 92 92 88 88 80 80 80 80 76 76 76 68 68 76 68 64 56 44 44 44 36 36 32 32 24 24 32 24 12 8 8 0 0 0 0 0 0 0 0 0 0 0 0 0 12 48 36 32 20 12 8
76 76 76 88 80 76 68 68 68 80 92 92 88 88 88 92 92 92 92 92 88 88 88 88 88 88 80 76 76 76 68 64 56 56 48 44 44 36 36 32 32 24 24 20 20 12 8 0 0 0 0 0 0 0 0 0 0 0 0 0 0 12 32 44 36 32 32 24 12
88 88 88 92 92 88 80 76 68 80 92 92 92 92 92 92 92 92 92 92 92 88 88 88 88 88 80 76 68 68 64 56 56 48 48 44 44 36 32 32 24 24 20 12 8 8 0 0 0 0 0 0 0 0 0 0 0 20 36 44 36 32 32 12 8 12 20 20 12
88 88 80 80 80 80 80 76 80 92 92 92 92 92 92 92 92 92 92 92 88 88 88 88 76 76 68 68 64 56 56 48 48 48 44 36 36 32 32 24 20 12 12 8 8 0 0 0 0 0 0 0 0 0 0 0 12 36 56 44 32 24 20 12 20 24 24 20 8
36 56 76 80 80 80 88 88 92 92 92 92 92 92 92 92 92 92 88 80 80 80 76 76 68 68 68 64 56 48 48 44 44 36 36 36 36 32 24 20 12 12 8 8 0 0 0 0 0 0 0 0 0 0 0 0 32 64 68 36 24 32 44 56 36 48 56 44 20
32 56 76 80 88 92 92 92 92 92 92 92 92 92 92 92 88 80 80 80 80 80 76 76 76 68 68 64 56 48 44 36 32 32 24 32 24 24 20 20 12 12 8 0 0 0 0 0 0 0 8 36 32 24 24 8 8 48 80 76 36 32 44 56 76 80 80 80 68
56 68 76 80 92 92 92 92 92 92 92 92 92 92 88 88 88 88 80 80 76 76 76 76 76 68 68 64 64 48 36 32 24 24 24 20 20 20 20 20 12 8 0 0 0 0 0 0 0 0 0 8 20 20 8 0 0 24 64 88 80 64 44 44 76 88 88 88 88
76 80 92 92 92 92 92 92 92 92 92 80 88 88 88 80 80 80 80 80 88 88 88 88 80 80 80 76 64 48 32 24 24 20 20 12 12 12 12 12 8 0 0 0 0 0 0 0 0 0 0 0 0 0 0 0 0 0 20 68 80 88 76 64 80 88 88 88 88
64 80 88 92 92 92 88 80 88 80 76 76 80 80 80 76 80 80 80 80 80 80 80 80 80 76 68 48 48 48 36 24 20 20 12 8 8 8 8 8 8 0 0 0 0 0 0 0 0 0 0 0 0 0 0 0 0 0 12 64 56 68 88 88 88 88 88 88 56
56 64 68 68 68 68 64 68 76 68 64 68 68 64 64 64 68 68 64 64 56 56 56 64 56 48 44 44 44 36 32 24 20 12 8 0 0 0 0 0 0 0 0 0 0 0 0 0 0 0 0 0 0 0 0 0 0 0 0 0 44 68 88 88 64 68 68 24 32
56 48 56 64 56 48 48 48 64 64 56 48 48 56 56 56 56 48 44 36 36 36 36 36 36 36 36 36 36 32 32 24 12 8 0 0 0 0 0 0 0 0 0 0 0 0 0 0 0 0 0 0 0 0 0 0 0 0 0 0 32 64 80 80 64 24 0 0 0
12 32 48 56 48 48 56 48 64 56 48 48 56 48 48 48 44 36 32 32 32 36 36 36 44 44 44 44 36 36 36 32 20 8 0 0 0 0 0 0 0 0 0 0 0 0 0 0 0 0 0 0 0 0 0 0 0 0 0 0 0 8 8 0 0 0 0 0 0
8 20 36 36 44 48 56 48 56 48 44 48 44 44 36 32 32 32 32 36 44 44 48 48 48 48 48 44 44 44 36 24 12 8 0 0 0 0 0 0 0 0 0 0 0 0 0 0 0 0 0 0 0 0 0 0 0 0 0 0 0 0 0 0 0 8 12 8 24
12 24 32 32 64 68 68 76 56 48 48 48 44 44 48 64 68 64 56 48 64 64 64 56 56 56 48 48 44 36 32 20 20 8 0 0 0 0 0 0 0 0 0 0 0 0 0 0 0 0 0 0 0 0 0 0 0 0 12 24 8 0 0 8 48 48 36 24 68
8 12 20 20 36 44 48 68 64 64 68 68 76 76 76 80 76 68 68 68 76 76 68 64 64 64 56 48 36 32 24 20 12 0 0 0 0 0 0 0 0 0 0 0 0 0 0 0 0 0 0 0 0 0 0 0 0 32 64 56 48 32 24 64 76 80 80 76 80
0 8 8 12 20 24 24 48 48 64 68 76 80 80 80 76 76 76 80 92 92 80 68 68 64 56 48 36 32 24 12 8 0 0 0 0 0 0 0 0 0 0 0 0 0 0 0 0 0 0 0 0 0 0 0 8 12 44 64 48 56 56 64 80 88 92 88 92 88
8 20 32 48 44 44 44 56 64 68 80 88 88 88 80 88 92 92 92 92 92 80 68 64 48 44 36 24 20 8 0 0 0 0 0 0 0 0 0 0 0 0 0 0 0 0 0 0 0 0 0 0 0 8 24 56 76 68 64 80 64 56 56 68 88 92 92 88 88
44 56 64 68 56 56 64 76 76 80 88 88 80 88 92 92 92 92 92 92 92 80 68 44 36 32 24 12 8 0 0 0 0 0 0 0 0 0 0 0 0 0 0 0 0 0 0 0 0 0 0 0 0 44 88 88 76 80 88 80 56 56 76 88 88 88 88 88 88
68 68 64 56 64 68 76 76 68 68 68 76 88 92 92 92 92 92 92 92 92 80 64 36 24 20 12 8 0 0 0 0 0 0 0 0 0 0 0 0 0 0 0 0 0 0 0 0 0 0 0 0 24 64 88 80 80 88 80 68 80 88 88 88 88 80 80 88 88
68 68 64 56 68 68 64 64 76 80 80 92 92 92 92 92 92 92 92 88 88 76 56 24 12 0 0 0 0 0 0 0 0 0 0 0 0 0 0 0 0 0 0 0 0 0 0 0 0 0 8 24 68 88 80 76 80 88 92 88 88 88 88 80 88 88 88 88 88
68 68 64 48 36 44 64 80 92 92 92 92 92 92 92 92 88 80 80 76 56 44 32 8 0 0 0 0 0 0 0 0 0 0 0 0 0 0 0 0 0 0 0 0 0 0 0 0 0 0 20 80 88 88 88 88 80 88 88 88 80 80 88 88 88 80 68 68 68
68 56 48 48 48 64 80 92 92 92 92 92 92 88 88 88 76 56 36 24 12 8 0 0 0 0 0 0 0 0 0 0 0 0 0 0 0 0 0 0 0 0 0 0 0 0 0 0 0 8 32 88 88 88 88 80 80 76 80 88 80 80 76 76 76 56 44 32 32
64 56 64 76 80 88 92 92 92 92 88 88 80 68 56 44 32 12 0 0 0 0 0 0 0 0 0 0 0 0 0 0 0 0 0 0 0 0 0 0 0 0 0 0 0 0 0 0 0 32 64 80 88 88 88 88 76 68 68 76 76 68 64 48 48 44 32 32 24